MCBH Kaneohe Bay, HI

10:20 PM HST on February 24, 2017 (GMT -1000)
Kaneohe Bay Marine Corps Air Facility

Weather History for PHNG - February, 2013

Change the Weather History Date:

Monday, February 4, 2013

  Actual Average Record
Temperature  
Mean Temperature 74 °F -  
Max Temperature 80 °F 75 °F 82 °F (2015)
Min Temperature 68 °F 66 °F 59 °F (2007)
Cooling Degree Days 9    
Growing Degree Days 24 (Base 50)    
Moisture  
Dew Point 60 °F    
Average Humidity 65    
Maximum Humidity 79    
Minimum Humidity 54    
Precipitation  
Precipitation 0.00 in - - ()
Sea Level Pressure  
Sea Level Pressure 30.12 in    
Wind  
Wind Speed 12 mph (ENE)    
Max Wind Speed 17 mph    
Max Gust Speed 32 mph    
Visibility 10 miles    
Events Rain    
Averages and records for this station are not official NWS values.
T = Trace of Precipitation, MM = Missing Value Source: NWS Daily Summary

Daily Weather History Graph

Daily Weather History Graph

Search for Another Location

Airport or City:

Trip Planner

Search our weather history database for the weather conditions in past years. The results will help you decide how hot, cold, wet, or windy it might be!

Date:

Astronomy

Feb. 04, 2013 Rise Set
Actual Time 7:07 AM HST 6:23 PM HST
Civil Twilight 6:44 AM HST 6:46 PM HST
Nautical Twilight 6:17 AM HST 7:12 PM HST
Astronomical Twilight 5:51 AM HST 7:39 PM HST
Moon 1:46 AM HST (2/4) 1:07 PM HST (2/4)
Length of Visible Light 12h 02m
Length of Day
11h 15m
Waning Crescent, 35% of the Moon is Illuminated
Feb 4
Waning Crescent
Feb 9
New
Feb 17
First Quarter
Feb 25
Full
Mar 4
Last Quarter

Hourly Weather History & Observations

Time (HST) Temp. Heat Index Dew Point Humidity Pressure Visibility Wind Dir Wind Speed Gust Speed Precip Events Conditions
12:57 AM 69.8 °F - 57.9 °F 66% 30.15 in 10.0 mi ENE 9.2 mph 16.1 mph N/A   Overcast
1:57 AM - - - N/A% 30.14 in 10.0 mi NE 12.7 mph 20.7 mph N/A   Overcast
2:57 AM - - - N/A% 30.12 in 10.0 mi ENE 11.5 mph 21.9 mph N/A   Overcast
3:57 AM - - - N/A% 30.12 in 10.0 mi NE 11.5 mph 20.7 mph N/A   Overcast
4:57 AM 69.8 °F - 55.0 °F 59% 30.12 in 10.0 mi NE 15.0 mph 21.9 mph N/A   Overcast
5:57 AM 69.8 °F - 57.0 °F 64% 30.13 in 10.0 mi ENE 9.2 mph 19.6 mph N/A   Mostly Cloudy
6:57 AM 71.6 °F - 55.9 °F 58% 30.14 in 10.0 mi ENE 12.7 mph 23.0 mph N/A   Mostly Cloudy
7:57 AM 72.5 °F - 55.0 °F 54% 30.15 in 10.0 mi ENE 10.4 mph 19.6 mph N/A   Mostly Cloudy
8:57 AM 72.5 °F - 57.9 °F 60% 30.15 in 10.0 mi ENE 10.4 mph 19.6 mph N/A   Overcast
9:57 AM 74.5 °F - 59.0 °F 58% 30.17 in 10.0 mi NE 17.3 mph 24.2 mph N/A   Partly Cloudy
10:57 AM 74.5 °F - 61.0 °F 63% 30.16 in 10.0 mi ENE 11.5 mph 20.7 mph 0.00 in   Mostly Cloudy
11:53 AM 77.0 °F - 64.4 °F 65% 30.16 in 10.0 mi NE 12.7 mph 32.2 mph 0.00 in Rain Light Rain
11:57 AM 77.7 °F - 64.0 °F 63% 30.14 in 10.0 mi NE 12.7 mph 25.3 mph 0.00 in Rain Light Rain
12:57 PM 76.8 °F - 64.9 °F 67% 30.12 in 10.0 mi NE 16.1 mph 23.0 mph 0.00 in   Mostly Cloudy
1:57 PM 77.9 °F - 64.9 °F 64% 30.10 in 10.0 mi NE 11.5 mph 19.6 mph 0.00 in   Mostly Cloudy
2:57 PM 80.1 °F 81.2 °F 62.1 °F 54% 30.08 in 10.0 mi NE 15.0 mph 24.2 mph N/A   Overcast
3:57 PM 76.8 °F - 63.0 °F 62% 30.06 in 10.0 mi NE 10.4 mph 20.7 mph N/A   Partly Cloudy
4:57 PM 75.2 °F - 63.0 °F 66% 30.07 in 10.0 mi ENE 15.0 mph 25.3 mph N/A   Partly Cloudy
5:57 PM 72.1 °F - 59.0 °F 63% 30.08 in 10.0 mi ENE 12.7 mph 21.9 mph N/A   Scattered Clouds
6:57 PM 72.9 °F - 60.1 °F 64% 30.09 in 10.0 mi ENE 13.8 mph 23.0 mph N/A   Overcast
7:57 PM 72.3 °F - 61.0 °F 67% 30.10 in 10.0 mi ENE 12.7 mph 19.6 mph N/A   Mostly Cloudy
8:57 PM 71.4 °F - 61.0 °F 70% 30.11 in 10.0 mi ENE 10.4 mph 18.4 mph N/A   Scattered Clouds
9:57 PM 68.9 °F - 62.1 °F 79% 30.11 in 10.0 mi ENE 9.2 mph 18.4 mph N/A   Clear
10:37 PM 69.8 °F - 60.8 °F 73% 30.13 in 10.0 mi ENE 12.7 mph 20.7 mph N/A   Mostly Cloudy
10:57 PM 68.9 °F - 61.0 °F 76% 30.12 in 10.0 mi ENE 12.7 mph 21.9 mph N/A   Scattered Clouds
11:57 PM 68.9 °F - 61.0 °F 76% 30.11 in 10.0 mi ENE 11.5 mph 23.0 mph 0.00 in   Mostly Cloudy